Aeroporto :
LOGIN :

Iscrizione | Disclaimer

   EN    FR    IT 

 










Sommario :    VFR   VFR Marginale   IFR   IFR Intensivo   IFR Molto Intensivo
Visibilità : 
Base nubi : 
>= 8 km
>= 3000ft
5 / 8 km
1000 / 3000 ft
1500m / 5 km
500 / 1000 ft
800 / 1500m
200 / 500 ft
< 800m
< 200 ft
Simboli :   Temporali  Nebbia  Neve Forte  Precipitazioni Forti  Vento > 20 kt
SIGMETs :   Varie  Temporali  Ghiacco  Turbolenza  Onda orograficha  Ceneri Vulcaniche







- Altitudine del aeroporto : 26 ft


ETNT - Wittmundhaven AB

ULTIMO METAR :
  • 231357Z 29011G21KT 9999 -DZ SCT015 BKN021 13/10 Q1024 WHT

METARs OBSOLETI :
  • 231320Z 32014KT 9999 SCT021 BKN030 13/10 Q1024 BLU
  • 231220Z 31013KT 9999 SCT025 BKN032 14/08 Q1024 BLU
  • 231120Z 30016KT 9999 SCT025 BKN039 14/08 Q1024 BLU

TAF TAF ETNT
Valido dal 23 a 14 ore il 23 a 23 ore UTC


231315Z 2314/2323 31012G22KT 9999 NSW FEW020 BKN040
PROB30 2314/2323 32018G28KT 7000 -RA BKN020 BY ETGL
Nessun NOTAM noto per questo aeroporto.



MetMap, La meteo Aeronautica in un colpo d'occhio ! - Copyright ORBIFLY Dicembre 2007 - Disclaimer

ORBIFLY MET'MAP TEAM :

Programmazione e sviluppo : Alexandra Zaïnal
Concezione e sviluppo : Baudouin d'Aumeries
Co-Programmazione e sviluppo : Marc-Olivier Méhu
Supporto tecnico e logistico : Manuel Goepfert
Aiuto per la traduzione : Arnaldo La Scala

Contatto : metmap@orbifly.com




FONTI E CREDITI :

   NOAA